Location: �quirre
(50.4736°N, 2.2351°E)
Time: 21:54:48
(UTC+00:00)

USA 215 - Pass Details

Date: 07 August 2020
Orbit: 1102 x 1106 km, 123.0° (Epoch: 08 August)

Event Time Altitude Azimuth Distance (km) Brightness Sun altitude
Rises 03:22:40 0° 59° (ENE) 3,929 8.2 -9.4°
Reaches altitude 10° 03:25:09 10° 59° (ENE) 2,969 7.1 -9.1°
Maximum altitude 03:31:42 80° 334° (NNW) 1,125 3.4 -8.3°
Drops below altitude 10° 03:38:15 10° 248° (WSW) 2,958 4.9 -7.5°
Enters shadow 03:38:48 - 248° (WSW) 3,174 5.1 -7.4°
